THOR ABLESTAR DEB, 320

Orbit data source: Space-Track

THOR ABLESTAR DEB, 320 is space debris in LEO originally from a launch on Thu, 29 Jun 1961 UTC launched from the Air Force Eastern Test Range (AFETR). Debris objects in space refer to the collection of defunct objects orbiting the Earth. Examples of debris include non-operational satellites, rocket bodies, and fragments generated from explosions, collisions, or faulty payload assembly.

Loading next visibility...
Identifier
320, 1961-015CW
Orbit
LEO
Country
Flag of USUS
Related business
Manufacturer
Unknown
Mission
Spacecraft
Bus & Motor
Unknown
Mass
Unknown
Launch date (UTC)
1961-06-29 (64 years ago)
Launch vehicle
Unknown
Launch site
Air Force Eastern Test Range (AFETR)
Object type
Payload
Rocket body
Debris
Shape & HBR
Unknown shape, 0.2 m
Radar Cross Section
Medium (>0.1 m² and <1 m²)

Expand to show TLE details & history
Last TLE update: 4 hours ago

TLE from 4 hours ago
0 THOR ABLESTAR DEB
1   320U 61015CW  25308.15813150  .00000353  00000-0  15626-3 0  9994
2   320  66.9044 269.1401 0136361 199.9303 159.6441 14.29356004336199
Epoch: 2025-11-04T03:47Z
TLE epoch observation values (Epoch: 2025-11-04T03:47:42.561Z)
Latitude
-0.00009°
Longitude
168.56355°
Altitude
887.866 km
Speed
7.361 km/s
True Right ascension
17h 56m 33s
True Declination
0° 00' 00"
Sunlit
Object was in daylight at epoch
Visualization orbit readout
Latitude
Unknown
Longitude
Unknown
Altitude
Unknown
Speed
Unknown
Apparent Right ascension
Unknown
Apparent Declination
Unknown
Sunlit
N/A
Visualization observer readout
Local Sidereal Time
04:00:27
Azimuth
Unknown
Elevation
Unknown
Doppler factor
Unknown
Orbital elements
Apogee altitude
890.011 km
Perigee altitude
694.46 km
Semi-major axis
7,170.372 km
Eccentricity
0.01364
Inclination
66.9044°
RAAN
269.1401°
Arg. of periapsis
199.9303°
True anomaly
160.17908°
Mean anomaly
159.6441°
Eccentric anomaly
159.91244°
Mean motion
3.57463 °/min
Orbital period
100.71 mins
BSTAR
0.00015626
Loading maneuver chart data...
Computing Atmospheric mass density...

Documentation

Showing up to 5 results
|